Location: ????????
(55.5667°N, 37.5833°E)
Time: 05:46:09
(UTC+00:00)

SeaSat 1 - Pass Details

Date: 14 April 2026
Orbit: 736 x 740 km, 108.0° (Epoch: 10 May)

Event Time Altitude Azimuth Distance (km) Brightness Sun altitude
Exits shadow 19:43:02 48° 167° (SSE) 965 2.6 -21.1°
Maximum altitude 19:44:22 74° 238° (WSW) 773 2.4 -21.2°
Drops below altitude 10° 19:49:17 10° 324° (NW) 2,261 6.1 -21.5°
Sets 19:51:34 0° 326° (NW) 3,189 7.2 -21.6°
